Location: ??????
(31.2056°N, 45.3906°E)
Time: 19:32:08
(UTC+00:00)

Cosmos 1606 Rocket - Pass Details

Date: 09 April 2020
Orbit: 602 x 633 km, 82.5° (Epoch: 27 May)

Event Time Altitude Azimuth Distance (km) Brightness Sun altitude
Rises 16:07:08 0° 181° (S) 2,881 6.8 -10.0°
Reaches altitude 10° 16:09:20 10° 180° (S) 1,984 6.0 -10.5°
Maximum altitude 16:13:43 76° 95° (E) 650 3.5 -11.4°
Drops below altitude 10° 16:18:11 10° 10° (N) 2,012 6.3 -12.3°
Sets 16:20:26 0° 9° (N) 2,926 7.1 -12.7°
